Погода в Тамбакунде

Сенегал     13°45′49″N   13°40′01″W
темп.,
°C
ветер,
м/с
пор.,
м/с
влажн.,
%
обл.,
%
осадки,
мм/ч
давл.,
гПа
погр.,
м
9 августа, вт
вт900:00+25юз3894100 0.5 1013292
03:00+24ююз3796100 2.0 1012274
06:00+24юз51096100 2.3 1012395
09:00+27зсз238286 0.0 1014453
12:00+31з5663100 0.0 10121054
15:00+34з335278 0.1 10101724
18:00+34зюз235761 0.1 1009286
21:00+28ююз3580100 0.4 1012114
10 августа, ср
ср1000:00+27юз41083100 0.4 1012435
03:00+26зюз41089100 0.3 1011443
06:00+25зюз399260 0.1 1011446
09:00+27з478296 0.1 1012681
12:00+30з566883 0.1 10121213
15:00+33з455798 0.6 10091578
18:00+30юз3474100 1.7 1008111
21:00+26юз4888100 0.3 1010185
11 августа, чт
чт1100:00+26юз41187100 0.4 1011385
03:00+25юз499069 0.0 1010476
06:00+25ююз3794100 0.0 1011398
09:00+25ююз3796100 0.8 1012402
12:00+25юз2495100 1.4 1013277
15:00+25ююз249287 0.0 1010259
18:00+29ююз246699 0.0 1010963
21:00+26ююз4883100 0.0 1012385
12 августа, пт
пт1200:00+25ююз41084100 0.0 1013478
03:00+23ююз399158 0.0 1012454
06:00+23ююз279483 0.0 1012336
09:00+26юз467982 0.0 1013553
12:00+30ю456077 0.1 10131406
15:00+32ю445682 0.2 10101545
18:00+27юз5981100 1.1 1011334
21:00+25ююз4109287 0.3 1013600
13 августа, сб
сб1300:00+24ююз4109490 0.3 1014616
03:00+24ююз499499 0.1 1013673
06:00+23юз41095100 0.3 1012610
09:00+25юз478979 0.1 1014537
12:00+29юз456883 0.3 10141106
15:00+29юз3465100 0.1 1012913
18:00+26ю3580100 0.1 1012221
21:00+24ююз3993100 1.7 1014286